Regional Weather Roundup
Issued by NWS

Home | Current Version | Previous Version | Graphics & Text | Print | Product List | Glossary On
Versions: 1 2 3 4 5 6 7 8 9 10 11 12 13 14 15 16 17 18 19 20 21 22 23 24 25 26 27 28 29 30 31 32 33 34 35 36 37 38 39 40 41 42 43 44 45 46 47 48 49 50
000
ASUS43 KMPX 050010
RWRMN
WEATHER ROUNDUP FOR MINNESOTA
NATIONAL WEATHER SERVICE TWIN CITIES/CHANHASSEN MN
700 PM CDT FRI SEP 04 2015


NOTE: "FAIR" INDICATES FEW OR NO CLOUDS BELOW 12,000 FEET WITH NO
SIGNIFICANT WEATHER AND/OR OBSTRUCTIONS TO VISIBILITY. N/A MEANS
CURRENT SKY AND/OR WEATHER CONDITIONS ARE NOT AVAILABLE.

MNZ060>063-068>070-050100-
   Twin Cities Metro

CITY           SKY/WX    TMP DP  RH WIND       PRES   REMARKS
TWIN CITIES    MOCLDY    85  72  65 SE10      29.90S HX  91
6HR MIN TEMP:  84; 6HR MAX TEMP:  89;

ST PAUL        MOCLDY    84  73  69 SE9       29.91R HX  90
CRYSTAL        FAIR      87  72  60 SE12      29.89R HX  93
BLAINE         PTCLDY    86  73  66 SE10      29.90  HX  93
LAKEVILLE      FAIR      82  73  74 SE6       29.92R
EDEN PRAIRIE   FAIR      85  73  67 SE10      29.89S HX  91
6HR MIN TEMP:  85; 6HR MAX TEMP:  91;

SOUTH ST PAUL  FAIR      85  71  62 SE6       29.91S HX  90
LAKE ELMO      FAIR      82  73  74 SE6       29.93S
$$
MNZ001>005-007-008-013>017-022>024-027-028-050100-
   Northwest Minnesota

CITY           SKY/WX    TMP DP  RH WIND       PRES   REMARKS
BEMIDJI        MOCLDY    77  72  85 E7        29.88F
HALLOCK        LGT RAIN  70  68  94 SE10      29.80F
ROSEAU         LGT RAIN  75  70  83 S10       29.84F
WARROAD        CLOUDY    75  72  88 SE20G26   29.87R
THIEF RVR FALL CLOUDY    75  72  88 S10       29.84R
CROOKSTON      FAIR      75  72  88 S6        29.84R
FOSSTON        LGT RAIN  73  70  88 CALM      29.87F
DETROIT LAKES  FAIR      77  72  83 CALM      29.89R
MOORHEAD       FAIR      79  73  83 E3        29.83S
PARK RAPIDS    MOCLDY    80  72  76 E3        29.89R
MAHNOMEN       CLOUDY    77  73  86 CALM      29.86R
$$
MNZ006-009>011-018-025>026-050100-
   North Central Minnesota

CITY           SKY/WX    TMP DP  RH WIND       PRES   REMARKS
BAUDETTE       MOCLDY    80  70  71 S9        29.86S
FLAG ISLAND    MOCLDY    73  70  88 S6        29.83S
INTL FALLS     MOCLDY    80  70  71 SE8       29.88F
6HR MIN TEMP:  80; 6HR MAX TEMP:  86;

WASKISH        FAIR      79  72  78 CALM      29.87F
BIG FORK       FAIR      79  70  73 SE6       29.90F
LONGVILLE      FAIR      79  72  78 SE3       29.90S
GRAND RAPIDS     N/A     79  70  73 SE7       29.92S
CRANE LAKE     FAIR      75  66  73 SE2       29.94S
ORR            FAIR      77  64  65 SE10        N/A
COOK           FAIR      75  66  73 SE8       29.93F
WALKER         TSTM      75  72  91 CALM      29.89S
$$
MNZ012-019>021-037-050100-
   Northeast Minnesota

CITY           SKY/WX    TMP DP  RH WIND       PRES   REMARKS
DULUTH         FAIR      71  63  75 E12       29.97S
6HR MIN TEMP:  71; 6HR MAX TEMP:  77;

ELY            FAIR      75  63  64 SE12      29.97F
HIBBING        FAIR      76  68  76 SE9       29.93F
EVELETH        FAIR      73  64  73 SE5       29.96F
DULUTH HARBOR  FAIR      61  57  88 E7        29.97S
TWO HARBORS    FAIR      72  63  73 NE10      29.96F
SILVER BAY     FAIR      70  59  68 NE6       29.98F
GRAND MARAIS     N/A     69  56  62 NE12      30.00F
G MARAIS ARPRT FAIR      68  54  60 E8        30.06F
$$
MNZ029>031-032-039>041-046>048-054>057-064-050100-
   West Central Minnesota

CITY           SKY/WX    TMP DP  RH WIND       PRES   REMARKS
FERGUS FALLS   FAIR      81  72  74 SE5       29.83F
WHEATON        FAIR      79  70  73 SE14      29.83F
MORRIS         FAIR      81  72  74 S8        29.85S
ALEXANDRIA     CLOUDY    78  72  81 S8        29.89S
ELBOW LAKE     FAIR      79  73  80 S8        29.86R
WADENA         MOCLDY    79  70  73 SE7       29.88R
GLENWOOD       FAIR      77  72  83 S6        29.89S
APPLETON       FAIR      81  68  65 SE7       29.83F
BENSON         FAIR      79  68  69 S5        29.86R
ORTONVILLE     FAIR      81  70  69 SE8       29.82F
MADISON        FAIR      75  66  73 SE10      29.83S
WILLMAR        FAIR      79  72  78 S8        29.88S
$$
MNZ033>034-036-042>043-049>051-058-059-050100-
   Central Minnesota

CITY           SKY/WX    TMP DP  RH WIND       PRES   REMARKS
ST CLOUD       FAIR      83  74  74 SE8       29.88S
6HR MIN TEMP:  82; 6HR MAX TEMP:  89;

SAUK CENTRE    FAIR      80  73  77 S3        29.89S
PAYNESVILLE    FAIR      82  72  70 SE7       29.89S
AITKIN         FAIR      81  72  74 SE6       29.90R
PINE RIVER     MOCLDY    79  73  83 E5        29.93S
BRAINERD       FAIR      81  72  74 SE5       29.90R
STAPLES        RAIN      81  72  74 CALM      29.88S
LONG PRAIRIE   FAIR      79  72  78 SE5       29.89S
LITTLE FALLS   FAIR      82  70  65 SE6       29.89S THUNDER
LITCHFIELD     FAIR      82  75  78 S3        29.88F
BUFFALO        MOCLDY    84  73  67 SE5       29.90R HX  90
MAPLE LAKE     MOCLDY    83  76  79 SE3       29.90S HX  91
$$
MNZ037-044-045-052-053-050100-
   East Central Minnesota

CITY           SKY/WX    TMP DP  RH WIND       PRES   REMARKS
PRINCETON      MOCLDY    84  73  70 E6        29.90S HX  91
MORA           FAIR      79  70  73 SE3       29.93R
CAMBRIDGE        N/A     84  72  65 SE6       29.89S
RUSH CITY      FAIR      82  72  72 SE7       29.92R
MOOSE LAKE     FAIR      73  64  73 E6        29.93R
HINCKLEY       FAIR      82  72  69 SE5       29.93R
CLOQUET        FAIR      66  61  82 E10G17    29.96S
MCGREGOR       FAIR      81  72  74 SE8       29.92S
$$
MNZ071>073-080-081-089-090-097-098-050100-
   Southwest Minnesota

CITY           SKY/WX    TMP DP  RH WIND       PRES   REMARKS
MONTEVIDEO     FAIR      79  70  73 S9        29.86F
GRANITE FALLS  FAIR      77  70  78 SE8       29.86F
CANBY          FAIR      79  70  73 SE8       29.83F
MARSHALL       MOCLDY    77  68  73 S12       29.86F
REDWOOD FALLS  LGT RAIN  77  71  82 S12       29.86F
OLIVIA         LGT RAIN  73  66  78 S7        29.89R
PIPESTONE      FAIR      79  70  73 S13G20    29.88R
WINDOM         FAIR      79  72  78 SE7       29.91S
WORTHINGTON    MOCLDY    79  70  73 SE10      29.90S
JACKSON        MOCLDY    79  73  83 SE7       29.93S
TRACY          CLOUDY    78  72  82 S9        29.88S
SLAYTON        FAIR      78  71  78 SE12      29.90R
$$
MNZ065>067-074>077-082>085-091>093-050100-
   South Central Minnesota

CITY           SKY/WX    TMP DP  RH WIND       PRES   REMARKS
MANKATO        FAIR      81  73  78 S7        29.91S
NEW ULM        FAIR      79  73  83 SW8       29.91R
ST JAMES       LGT RAIN  79  73  83 SW3       29.93R
FAIRMONT       FAIR      77  70  78 SE9       29.92F
GLENCOE        FAIR      84  76  77 CALM      29.90R HX  93
FARIBAULT      FAIR      82  73  74 S8        29.93S
OWATONNA       FAIR      84  72  65 S6        29.94R
WASECA         FAIR      79  72  78 S6        29.94S
ALBERT LEA     FAIR      82  72  69 S5        29.95R
$$
MNZ078>079-086>088-094>096-050100-
   Southeast Minnesota

CITY           SKY/WX    TMP DP  RH WIND       PRES   REMARKS
ROCHESTER      FAIR      80  73  79 S6        29.97R
6HR MIN TEMP:  80; 6HR MAX TEMP:  87;

RED WING       FAIR      84  72  65 SE9       29.92S
STANTON        FAIR      85  72  64 SE6       29.91S HX  90
DODGE CENTER   FAIR      81  72  74 CALM      29.96R
WINONA         FAIR      82  70  65 CALM      29.96R
AUSTIN         FAIR      82  73  74 S5        29.96R
PRESTON        FAIR      81  70  69 CALM      29.99R
$$
ABBREVIATIONS USED IN REMARKS
   TC - TEMPERATURES IN CELSIUS
  WCI - WIND CHILL INDEX
   HX - HEAT INDEX
  VSB - VISIBILITY
$$


USA.gov is the U.S. government's official web portal to all federal, state and local government web resources and services.